Погода в Линкольне

Великобритания     53°14′12″N   0°32′15″E
темп.,
°C
ветер,
м/с
пор.,
м/с
влажн.,
%
обл.,
%
осадки,
мм/ч
давл.,
гПа
погр.,
м
19 апреля, пн
пн1901:00+2в11855 0.0 102510
04:00+2в00852 0.0 102410
07:00+3ссв11835 0.0 102310
10:00+10вюв11610 0.0 1023486
13:00+13юв23540 0.0 10221170
16:00+15юв335412 0.0 10201436
19:00+11вюв46720 0.0 1020233
22:00+5вюв34845 0.0 102061
20 апреля, вт
вт2001:00+4вюв22885 0.0 102019
04:00+4юв11905 0.0 101910
07:00+5в118788 0.0 102010
10:00+11ссз1068100 0.0 1020399
13:00+14ссз225699 0.1 10191460
16:00+15ссз2355100 0.3 10181382
19:00+12всв2375100 0.6 101969
22:00+8всв238656 0.1 102040
21 апреля, ср
ср2101:00+8ссв3783100 0.1 1021241
04:00+7ссв499298 0.0 1022513
07:00+7ссв5975100 0.0 1023693
10:00+9св676242 0.0 10241162
13:00+10св664913 0.0 10251547
16:00+10св55495 0.0 10251482
19:00+7св466246 0.0 1025549
22:00+2всв23786 0.0 102629
22 апреля, чт
чт2201:00+1ссз008365 0.0 102610
04:000з228599 0.0 102612
07:00+1з237479 0.0 102679
10:00+9зсз345340 0.0 1027507
13:00+13ссз354968 0.0 10261466
16:00+14св444913 0.0 10261717
19:00+8всв476458 0.0 1028318
22:00+3в22885 0.0 102919
23 апреля, пт
пт2301:00+1сз11875 0.0 102910
04:00+1сз11855 0.0 102910
07:00+3з11786 0.0 102915
10:00+10зюз11555 0.0 1029411
13:00+14зюз225166 0.0 10291111
16:00+15сз1247100 0.0 10281559
19:00+11св69706 0.0 1029320
22:00+4св379351 0.0 1031114